TimeCDT,TemperatureF,Dew PointF,Humidity,Sea Level PressureIn,VisibilityMPH,Wind Direction,Wind SpeedMPH,Gust SpeedMPH,PrecipitationIn,Events,Conditions,WindDirDegrees,DateUTC
12:54 AM,55.9,32.0,40,30.09,10.0,NNE,9.2,-,N/A,,Clear,30,2012-05-14 05:54:00
1:54 AM,54.0,30.0,40,30.08,10.0,NNE,6.9,-,N/A,,Clear,20,2012-05-14 06:54:00
2:54 AM,55.9,30.0,37,30.08,10.0,NNE,8.1,-,N/A,,Clear,20,2012-05-14 07:54:00
3:54 AM,55.0,33.1,43,30.08,10.0,NNE,5.8,-,N/A,,Mostly Cloudy,30,2012-05-14 08:54:00
4:54 AM,55.0,36.0,49,30.09,10.0,NNE,4.6,-,N/A,,Mostly Cloudy,30,2012-05-14 09:54:00
5:54 AM,52.0,37.0,57,30.09,10.0,North,5.8,-,N/A,,Clear,10,2012-05-14 10:54:00
6:54 AM,55.9,39.0,53,30.11,10.0,North,6.9,-,N/A,,Clear,10,2012-05-14 11:54:00
7:54 AM,61.0,43.0,52,30.11,10.0,North,4.6,-,N/A,,Clear,10,2012-05-14 12:54:00
8:54 AM,68.0,45.0,43,30.11,10.0,NNE,4.6,-,N/A,,Clear,20,2012-05-14 13:54:00
9:54 AM,72.0,42.1,34,30.10,10.0,NNE,12.7,-,N/A,,Clear,30,2012-05-14 14:54:00
10:54 AM,75.0,41.0,29,30.10,10.0,NNE,12.7,16.1,N/A,,Clear,20,2012-05-14 15:54:00
11:54 AM,75.9,39.0,26,30.10,10.0,North,11.5,-,N/A,,Clear,10,2012-05-14 16:54:00
12:54 PM,78.1,39.0,25,30.08,10.0,NNW,5.8,16.1,N/A,,Clear,330,2012-05-14 17:54:00
1:54 PM,79.0,39.9,25,30.06,10.0,NNW,9.2,-,N/A,,Clear,340,2012-05-14 18:54:00
2:54 PM,80.1,39.0,23,30.04,10.0,NE,5.8,-,N/A,,Clear,40,2012-05-14 19:54:00
3:54 PM,80.1,39.9,24,30.02,10.0,Variable,4.6,-,N/A,,Clear,0,2012-05-14 20:54:00
4:54 PM,79.0,37.0,22,30.01,10.0,WNW,6.9,-,N/A,,Clear,300,2012-05-14 21:54:00
5:54 PM,78.8,39.2,24,30.01,10.0,North,4.6,-,N/A,,Clear,10,2012-05-14 22:54:00
6:54 PM,75.0,39.9,28,30.00,10.0,NNE,5.8,-,N/A,,Clear,30,2012-05-14 23:54:00
7:54 PM,68.0,35.1,30,30.01,10.0,North,5.8,-,N/A,,Clear,10,2012-05-15 00:54:00
8:54 PM,66.0,36.0,33,30.02,10.0,NNW,6.9,-,N/A,,Clear,340,2012-05-15 01:54:00
9:54 PM,68.0,37.9,33,30.03,10.0,NNW,4.6,-,N/A,,Clear,340,2012-05-15 02:54:00
10:54 PM,59.0,37.9,46,30.03,10.0,NE,3.5,-,N/A,,Clear,50,2012-05-15 03:54:00
11:54 PM,55.9,37.0,49,30.03,10.0,Calm,Calm,-,N/A,,Clear,0,2012-05-15 04:54:00